Enid, OK

2:59 PM CST on February 26, 2017 (GMT -0600)
Enid Woodring Municipal

Weather History for KWDG - January, 2013

Change the Weather History Date:

Monday, January 28, 2013

  Actual Average Record
Temperature  
Mean Temperature 62 °F -  
Max Temperature 73 °F 44 °F 77 °F (2011)
Min Temperature 50 °F 28 °F 6 °F (2009)
Degree Days  
Heating Degree Days 4    
Growing Degree Days 12 (Base 50)    
Moisture  
Dew Point 56 °F    
Average Humidity 84    
Maximum Humidity 94    
Minimum Humidity 61    
Precipitation  
Precipitation 0.00 in - - ()
Sea Level Pressure  
Sea Level Pressure 29.76 in    
Wind  
Wind Speed 13 mph (South)    
Max Wind Speed 29 mph    
Max Gust Speed 38 mph    
Visibility 10 miles    
Events      
Averages and records for this station are not official NWS values.
T = Trace of Precipitation, MM = Missing Value Source: NWS Daily Summary

Daily Weather History Graph

Daily Weather History Graph

Search for Another Location

Airport or City:

Trip Planner

Search our weather history database for the weather conditions in past years. The results will help you decide how hot, cold, wet, or windy it might be!

Date:

Astronomy

Jan. 28, 2013 Rise Set
Actual Time 7:35 AM CST 5:53 PM CST
Civil Twilight 7:07 AM CST 6:20 PM CST
Nautical Twilight 6:36 AM CST 6:51 PM CST
Astronomical Twilight 6:06 AM CST 7:22 PM CST
Moon 7:44 PM CST (1/28) 8:05 AM CST (1/28)
Length of Visible Light 11h 12m
Length of Day
10h 18m
Full, 98% of the Moon is Illuminated
Jan 28
Full
Feb 3
Last Quarter
Feb 10
New
Feb 17
First Quarter
Feb 25
Full

Hourly Weather History & Observations

Time (CST) Temp. Dew Point Humidity Pressure Visibility Wind Dir Wind Speed Gust Speed Precip Events Conditions
12:15 AM 59.0 °F 53.6 °F 82% 29.81 in 10.0 mi South 11.5 mph - N/A   Clear
12:35 AM 59.0 °F 53.6 °F 82% 29.81 in 10.0 mi South 11.5 mph - N/A   Clear
12:55 AM 57.2 °F 53.6 °F 88% 29.80 in 10.0 mi South 12.7 mph - N/A   Clear
1:15 AM 57.2 °F 53.6 °F 88% 29.81 in 10.0 mi SSW 8.1 mph - N/A   Clear
1:35 AM 55.4 °F 51.8 °F 88% 29.81 in 10.0 mi SSW 8.1 mph - N/A   Clear
1:55 AM 55.4 °F 51.8 °F 88% 29.81 in 10.0 mi South 6.9 mph - N/A   Clear
2:15 AM 53.6 °F 50.0 °F 88% 29.81 in 10.0 mi South 5.8 mph - N/A   Clear
2:35 AM 51.8 °F 50.0 °F 94% 29.81 in 10.0 mi South 5.8 mph - N/A   Clear
2:55 AM 50.0 °F 48.2 °F 94% 29.81 in 10.0 mi South 8.1 mph - N/A   Clear
3:15 AM 50.0 °F 48.2 °F 94% 29.81 in 10.0 mi South 8.1 mph - N/A   Clear
3:35 AM 53.6 °F 51.8 °F 94% 29.81 in 10.0 mi South 10.4 mph - N/A   Clear
3:55 AM 53.6 °F 51.8 °F 94% 29.81 in 10.0 mi South 11.5 mph - N/A   Clear
4:15 AM 53.6 °F 51.8 °F 94% 29.82 in 10.0 mi SSW 10.4 mph - N/A   Clear
4:35 AM 53.6 °F 51.8 °F 94% 29.82 in 10.0 mi SSW 10.4 mph - N/A   Clear
4:55 AM 53.6 °F 51.8 °F 94% 29.82 in 10.0 mi SSW 10.4 mph - N/A   Clear
6:17 AM 51.8 °F 50.0 °F 94% 29.83 in 10.0 mi South 11.5 mph - N/A   Partly Cloudy
6:55 AM 51.8 °F 50.0 °F 94% 29.84 in 10.0 mi South 12.7 mph - N/A   Scattered Clouds
7:50 AM 50.0 °F 48.2 °F 94% 29.85 in 10.0 mi South 5.8 mph - N/A   Mostly Cloudy
8:50 AM 55.4 °F 53.6 °F 94% 29.85 in 10.0 mi South 11.5 mph 17.3 mph N/A   Mostly Cloudy
9:50 AM 62.6 °F 59.0 °F 88% 29.86 in 10.0 mi SSW 20.7 mph 28.8 mph N/A   Mostly Cloudy
10:50 AM 68.0 °F 60.8 °F 78% 29.85 in 10.0 mi SSW 23.0 mph 29.9 mph N/A   Mostly Cloudy
11:55 AM 71.6 °F 59.0 °F 64% 29.82 in 10.0 mi SSW 26.5 mph 33.4 mph N/A   Mostly Cloudy
12:50 PM 73.4 °F 59.0 °F 61% 29.79 in 10.0 mi SSW 26.5 mph 34.5 mph N/A   Mostly Cloudy
1:50 PM 71.6 °F 59.0 °F 64% 29.75 in 10.0 mi South 21.9 mph 34.5 mph N/A   Mostly Cloudy
2:50 PM 73.4 °F 60.8 °F 65% 29.72 in 10.0 mi South 28.8 mph 38.0 mph N/A   Mostly Cloudy
3:53 PM 73.4 °F 59.0 °F 61% 29.71 in 10.0 mi South 28.8 mph 38.0 mph N/A   Scattered Clouds
7:50 PM 66.2 °F 60.8 °F 83% 29.70 in 10.0 mi SSE 17.3 mph - N/A   Scattered Clouds
8:15 PM 64.4 °F 59.0 °F 83% 29.69 in 10.0 mi SSE 11.5 mph - N/A   Clear
8:35 PM 64.4 °F 60.8 °F 88% 29.69 in 10.0 mi SSE 15.0 mph - N/A   Clear
8:50 PM 66.2 °F 60.8 °F 83% 29.69 in 10.0 mi SSE 19.6 mph - N/A   Scattered Clouds
8:55 PM 64.4 °F 60.8 °F 88% 29.69 in 10.0 mi SSE 16.1 mph - N/A   Clear
9:15 PM 66.2 °F 60.8 °F 83% 29.68 in 10.0 mi South 19.6 mph - N/A   Clear
9:35 PM 66.2 °F 60.8 °F 83% 29.68 in 10.0 mi South 21.9 mph - N/A   Clear
9:55 PM 68.0 °F 60.8 °F 78% 29.68 in 10.0 mi South 21.9 mph 26.5 mph N/A   Clear
10:15 PM 68.0 °F 60.8 °F 78% 29.67 in 10.0 mi South 21.9 mph 27.6 mph N/A   Clear
10:35 PM 68.0 °F 60.8 °F 78% 29.67 in 10.0 mi South 20.7 mph 27.6 mph N/A   Clear
10:55 PM 68.0 °F 60.8 °F 78% 29.67 in 10.0 mi South 21.9 mph 27.6 mph N/A   Clear
11:15 PM 68.0 °F 60.8 °F 78% 29.67 in 10.0 mi South 21.9 mph 26.5 mph N/A   Clear
11:35 PM 68.0 °F 59.0 °F 73% 29.67 in 10.0 mi South 18.4 mph - N/A   Clear
11:55 PM 66.2 °F 59.0 °F 78% 29.67 in 10.0 mi South 17.3 mph 23.0 mph N/A   Clear